Pensacola Beach, Florida, United States
Lat: 30.38N, Lon: 87.09W
Wx Zone: FLZ004
Local Info
Past Weather Observations for Today

NOTE: This archive is for the closest National Weather Service station to Pensacola Beach. Information may differ from the station used for current weather conditions.

Click here for Long-term Archive

Time Weather Temperature Dewpoint Humidity Pressure Winds Precip Visibility
15:53
Overcast
52°F / 11°C 45°F / 7°C 77% 30.09 in
(1019 mb)
NNE 4.6 mph
(NNE 7 kph)
0.00 in
(0.00 mm)
10SM
14:53
Overcast
52°F / 11°C 45°F / 7°C 77% 30.06 in
(1018 mb)
NE 5.8 mph
(NE 9 kph)
0.00 in
(0.00 mm)
10SM
13:53
Overcast
Light Rain
52°F / 11°C 45°F / 7°C 77% 30.09 in
(1019 mb)
ENE 6.9 mph
(ENE 11 kph)
0.00 in
(0.00 mm)
10SM
13:35
Mostly Cloudy
Light Rain
52°F / 11°C 45°F / 7°C 77% 30.09 in
(1019 mb)
NE 6.9 mph
(NE 11 kph)
0.00 in
(0.00 mm)
10SM
12:53
Partly Cloudy
Light Rain
52°F / 11°C 45°F / 7°C 77% 30.09 in
(1019 mb)
NE 9.2 mph
(NE 15 kph)
0.00 in
(0.00 mm)
10SM
12:46
Partly Cloudy
Light Rain
52°F / 11°C 45°F / 7°C 77% 30.09 in
(1019 mb)
ENE 8.1 mph
(ENE 13 kph)
0.00 in
(0.00 mm)
10SM
12:27
Overcast
Light Rain
50°F / 10°C 45°F / 7°C 82% 30.09 in
(1019 mb)
ENE 5.8 mph
(ENE 9 kph)
0.00 in
(0.00 mm)
10SM
11:53
Partly Cloudy
Light Rain
50°F / 10°C 46°F / 8°C 88% 30.12 in
(1020 mb)
E 5.8 mph
(E 9 kph)
0.00 in
(0.00 mm)
10SM
10:53
Overcast
Light Rain
48°F / 9°C 46°F / 8°C 94% 30.18 in
(1022 mb)
ENE 5.8 mph
(ENE 9 kph)
0.14 in
(3.56 mm)
5SM
10:42
Overcast
Rain
48°F / 9°C 45°F / 7°C 87% 30.21 in
(1023 mb)
Calm 0.13 in
(3.30 mm)
4SM
10:11
Overcast
Rain
46°F / 8°C 45°F / 7°C 93% 30.24 in
(1024 mb)
Calm 0.08 in
(2.03 mm)
2SM
09:53
Overcast
Heavy Rain
46°F / 8°C 45°F / 7°C 93% 30.24 in
(1024 mb)
WNW 3.5 mph
(WNW 6 kph)
0.27 in
(6.86 mm)
1 1/4SM
09:37
Overcast
Rain
46°F / 8°C 45°F / 7°C 93% 30.24 in
(1024 mb)
NW 6.9 mph
(NW 11 kph)
0.17 in
(4.32 mm)
2 1/2SM
09:14
Overcast
Heavy Rain
48°F / 9°C 45°F / 7°C 87% 30.24 in
(1024 mb)
NW 15 mph
(NW 24 kph)
0.06 in
(1.52 mm)
1 3/4SM
08:53
Overcast
Light Rain
48°F / 9°C 43°F / 6°C 82% 30.15 in
(1021 mb)
E 5.8 mph
(E 9 kph)
0.02 in
(0.51 mm)
10SM
07:53
Overcast
Light Rain
50°F / 10°C 41°F / 5°C 71% 30.15 in
(1021 mb)
NE 5.8 mph
(NE 9 kph)
0.01 in
(0.25 mm)
6SM
06:53
Overcast
54°F / 12°C 37°F / 3°C 54% 30.15 in
(1021 mb)
NE 5.8 mph
(NE 9 kph)
- 10SM
05:53
Overcast
54°F / 12°C 37°F / 3°C 54% 30.12 in
(1020 mb)
NE 6.9 mph
(NE 11 kph)
- 10SM
04:53
Overcast
54°F / 12°C 39°F / 4°C 58% 30.12 in
(1020 mb)
NNE 6.9 mph
(NNE 11 kph)
- 10SM
03:53
Overcast
54°F / 12°C 43°F / 6°C 67% 30.12 in
(1020 mb)
NNE 4.6 mph
(NNE 7 kph)
- 10SM
02:53
Overcast
54°F / 12°C 43°F / 6°C 67% 30.12 in
(1020 mb)
NNE 8.1 mph
(NNE 13 kph)
- 10SM
01:53
Overcast
54°F / 12°C 43°F / 6°C 67% 30.12 in
(1020 mb)
NNE 6.9 mph
(NNE 11 kph)
- 10SM
00:53
Overcast
55°F / 13°C 43°F / 6°C 63% 30.15 in
(1021 mb)
N 5.8 mph
(N 9 kph)
- 10SM
Time Weather Temperature Dewpoint Humidity Pressure Winds Precip Visibility


Weather for websites

WeatherForYou.com, LLC is not responsible for any damages or problems caused by this service. Current weather conditions are obtained from the closest station including government and personal stations which may have varying degrees of accuracy. Weather forecasts are derived from the NOAA NDFD. Like all things, this site belongs to Jesus Christ... He just trusts me to maintain it. If you have any questions or comments email webmaster@weatherforyou.com

Copyright © 2014, WeatherForYou.com LLC. All rights reserved.